[[{"header":{"parameterUnit":"m.s-1","parameterCategory":1,"la1":30.2991,"la2":30.254,"lo1":-89.0895,"lo2":-89.0444,"dy":0.0017,"dx":0.0017,"nx":28,"ny":28,"refTime":"2025-06-13T09:00:00:Z","depth":0,"parameterNumber":2,"parameterNumberName":"U-component_of_WINDS"},"data":[0,0,0,0,0,0,0,0,0,0,0,0,0,0,0,0,0,0,0,0,0,0,0,0,0,0,0,0,0,0,0,0,0,0,0,0,0,0,0,0,0,0,0,0,0,0,0,0,0,0,0,0,0,0,0,0,0,0,-1.1629,-1.1629,0,-1.1592,-1.1591,-1.1591,-1.1555,-1.1554,-1.1554,-1.1553,-1.1515,-1.1515,-1.1514,0,0,0,0,0,0,0,0,0,0,0,0,0,-1.1671,-1.167,-1.1629,-1.1629,-1.1628,-1.1592,-1.1591,-1.1591,-1.1555,-1.1554,-1.1554,-1.1553,-1.1516,-1.1515,-1.1514,0,0,0,0,0,0,0,0,0,0,0,0,0,-1.1645,-1.167,-1.1629,-1.1606,-1.1604,-1.1592,-1.1591,-1.1591,-1.1555,-1.1554,-1.1554,-1.1553,-1.1516,-1.1515,-1.1514,-1.1523,0,0,-1.1512,-1.1511,0,0,0,0,0,0,0,0,-1.1647,-1.1644,-1.161,-1.1608,-1.1605,-1.1577,-1.1592,-1.1568,-1.1555,-1.1573,-1.1553,-1.1553,-1.1537,-1.1534,-1.1529,-1.1521,-1.1519,-1.1511,-1.1511,-1.1511,-1.151,0,0,0,0,0,0,0,-1.1648,-1.1645,-1.1615,-1.161,-1.1606,-1.1598,-1.1593,-1.1587,-1.1559,-1.1572,-1.1569,-1.1565,-1.1535,-1.1529,-1.1527,-1.1519,-1.1511,-1.1511,-1.151,-1.151,-1.1517,-1.1517,0,0,0,0,0,0,-1.1654,-1.1647,-1.1616,-1.1613,-1.1624,-1.1598,-1.1593,-1.1587,-1.1559,-1.1555,-1.1566,-1.1564,-1.1531,-1.1528,-1.1526,-1.1534,-1.1511,-1.151,-1.1509,-1.1516,-1.1517,-1.1518,0,0,0,0,0,0,-1.1655,-1.1651,-1.1617,-1.1629,-1.1624,-1.1598,-1.1591,-1.1586,-1.1581,-1.1555,-1.155,-1.1565,-1.1531,-1.1527,-1.1524,-1.1532,-1.1509,-1.1509,-1.1515,-1.1516,-1.1517,-1.155,0,0,0,0,0,0,-1.1656,-1.1652,-1.1655,-1.163,-1.1624,-1.1616,-1.1592,-1.1586,-1.1579,-1.1576,-1.1553,-1.1548,-1.153,-1.1525,-1.1523,-1.153,-1.1508,-1.1514,-1.1516,-1.1517,-1.1548,-1.1552,-1.1556,0,0,0,0,0,-1.1658,-1.1665,-1.1655,-1.1651,-1.1627,-1.1616,-1.1613,-1.1591,-1.158,-1.1583,-1.1566,-1.1549,-1.1532,-1.1525,-1.1522,-1.153,-1.1514,-1.1515,-1.1517,-1.1547,-1.1552,-1.1556,0,0,0,0,0,0,-1.1692,-1.1662,-1.165,-1.165,-1.1636,-1.161,-1.1613,-1.1597,-1.1586,-1.1584,-1.1558,-1.1553,-1.1553,-1.1541,-1.1534,-1.1537,-1.152,-1.1522,-1.1544,-1.1549,-1.1552,-1.1555,-1.1507,0,0,0,0,0,-1.17,-1.1693,-1.1667,-1.167,-1.1664,-1.164,-1.1634,-1.1619,-1.1603,-1.1597,-1.1581,-1.1567,-1.1558,-1.1553,-1.1543,-1.1547,-1.1541,-1.1551,-1.1554,-1.1558,-1.1559,-1.156,-1.1563,-1.1523,-1.1523,-1.1523,0,0,-1.1715,-1.1698,-1.1696,-1.1676,-1.1664,-1.1658,-1.1635,-1.163,-1.1625,-1.1597,-1.1592,-1.158,-1.1562,-1.1563,-1.1562,-1.1553,-1.1569,-1.156,-1.1562,-1.1562,-1.1562,-1.1565,-1.1569,-1.1524,-1.1524,-1.1524,0,0,-1.174,-1.1727,-1.1727,-1.1715,-1.1697,-1.1681,-1.1681,-1.1658,-1.1648,-1.1644,-1.1622,-1.1617,-1.1603,-1.1591,-1.1583,-1.1605,-1.1589,-1.1603,-1.1622,-1.1623,-1.1627,-1.1629,-1.1637,-1.164,-1.1604,-1.1604,-1.1604,0,-1.1762,-1.1752,-1.173,-1.1726,-1.1718,-1.1692,-1.1693,-1.1682,-1.1662,-1.1657,-1.1647,-1.1629,-1.1616,-1.1613,-1.1618,-1.1613,-1.1612,-1.1605,-1.1628,-1.163,-1.1633,-1.1639,-1.1642,-1.1606,-1.1606,-1.1606,-1.1606,0,-1.178,-1.1774,-1.1776,-1.1757,-1.175,-1.1748,-1.1725,-1.1721,-1.1706,-1.1692,-1.1687,-1.1671,-1.1657,-1.1656,-1.1642,-1.1651,-1.1646,-1.1633,-1.1616,-1.1639,-1.1644,-1.1647,-1.1609,-1.1608,-1.1608,-1.1607,0,0,-1.1825,-1.1793,-1.1794,-1.1785,-1.1763,-1.1758,-1.1756,-1.1743,-1.1739,-1.1726,-1.1723,-1.1712,-1.17,-1.1691,-1.1676,-1.1677,-1.1695,-1.1664,-1.1663,-1.167,-1.1704,-1.1714,-1.1717,-1.1685,-1.1685,-1.1686,-1.1706,0,-1.1846,-1.1839,-1.1819,-1.1819,-1.1813,-1.1788,-1.1786,-1.1773,-1.1759,-1.1752,-1.1737,-1.173,-1.1714,-1.1709,-1.1709,-1.1693,-1.1702,-1.1692,-1.1682,-1.1682,-1.1686,-1.172,-1.173,-1.175,-1.1708,-1.1708,-1.1708,0,-1.1869,-1.1858,-1.1857,-1.1835,-1.1831,-1.183,-1.1816,-1.181,-1.1794,-1.1785,-1.1775,-1.1758,-1.1755,-1.174,-1.1734,-1.1728,-1.1723,-1.1715,-1.1715,-1.1713,-1.1696,-1.1718,-1.1756,-1.1758,-1.1712,-1.1712,-1.1711,0,-1.1902,-1.1886,-1.1883,-1.1876,-1.1851,-1.185,-1.184,-1.1823,-1.1817,-1.1805,-1.1801,-1.179,-1.1783,-1.1775,-1.1755,-1.1746,-1.1752,-1.1736,-1.1744,-1.1744,-1.1745,-1.1745,-1.1782,-1.1744,-1.1744,-1.1744,-1.1744,0,-1.1927,-1.1927,-1.1897,-1.1895,-1.1895,-1.1872,-1.1873,-1.186,-1.1846,-1.1841,-1.182,-1.1817,-1.1791,-1.1785,-1.177,-1.1768,-1.1765,-1.1757,-1.1753,-1.1759,-1.176,-1.1754,-1.1752,-1.1744,-1.1744,-1.1744,-1.1744,0,-1.1962,-1.1942,-1.1938,-1.1914,-1.1908,-1.1909,-1.1889,-1.1887,-1.1872,-1.1867,-1.1864,-1.1842,-1.1833,-1.1813,-1.18,-1.1789,-1.1791,-1.1784,-1.1796,-1.1793,-1.1803,-1.1802,-1.1836,-1.184,-1.18,-1.1801,-1.1801,0,-1.1979,-1.1979,-1.1955,-1.1951,-1.1941,-1.1934,-1.1927,-1.1905,-1.1899,-1.1881,-1.1881,-1.1871,-1.1862,-1.1849,-1.1832,-1.1821,-1.1813,-1.1826,-1.1812,-1.1817,-1.1813,-1.1813,-1.1813,-1.1829,-1.183,-1.183,-1.1831,0,-1.2011,-1.2002,-1.1993,-1.198,-1.1973,-1.1962,-1.195,-1.1948,-1.1923,-1.1917,-1.1908,-1.1901,-1.1887,-1.1877,-1.1864,-1.1854,-1.1838,-1.1835,-1.1837,-1.1842,-1.1849,-1.1845,-1.1804,-1.1834,-1.1834,-1.1834,-1.1834,-1.1833,-1.2038,-1.2036,-1.2019,-1.201,-1.1999,-1.1988,-1.1985,-1.197,-1.1962,-1.1948,-1.1936,-1.1928,-1.1913,-1.1894,-1.1885,-1.1878,-1.187,-1.1872,-1.1873,-1.1873,-1.1876,-1.1851,-1.1876,-1.1876,-1.1876,-1.1876,-1.1876,0,-1.2068,-1.2056,-1.2048,-1.2032,-1.2025,-1.2011,-1.1997,-1.1992,-1.1985,-1.1972,-1.1964,-1.1953,-1.1944,-1.1926,-1.1915,-1.1914,-1.1906,-1.1911,-1.1911,-1.1909,-1.1884,-1.1883,-1.1918,-1.1918,-1.1918,-1.1918,-1.1918,-1.1917,-1.2083,-1.208,-1.2068,-1.2059,-1.2047,-1.2039,-1.2032,-1.2023,-1.2012,-1.2002,-1.1993,-1.1982,-1.1967,-1.1955,-1.1946,-1.1941,-1.1937,-1.1945,-1.1938,-1.1914,-1.191,-1.1907,-1.1906,-1.1944,-1.1945,-1.1963,-1.1963,-1.1963]},{"header":{"parameterUnit":"m.s-1","parameterCategory":1,"la1":30.2991,"la2":30.254,"lo1":-89.0895,"lo2":-89.0444,"dy":0.0017,"dx":0.0017,"nx":28,"ny":28,"refTime":"2025-06-13T09:00:00:Z","depth":0,"parameterNumber":3,"parameterNumberName":"V-component_of_WINDS"},"data":[0,0,0,0,0,0,0,0,0,0,0,0,0,0,0,0,0,0,0,0,0,0,0,0,0,0,0,0,0,0,0,0,0,0,0,0,0,0,0,0,0,0,0,0,0,0,0,0,0,0,0,0,0,0,0,0,0,0,3.8858,3.8858,0,3.883,3.883,3.883,3.8833,3.8833,3.8834,3.8834,3.8804,3.8803,3.8802,0,0,0,0,0,0,0,0,0,0,0,0,0,3.8913,3.8912,3.8858,3.8858,3.8857,3.883,3.883,3.883,3.8833,3.8833,3.8834,3.8834,3.8804,3.8803,3.8802,0,0,0,0,0,0,0,0,0,0,0,0,0,3.8887,3.8911,3.8858,3.8856,3.8855,3.883,3.883,3.8829,3.8833,3.8833,3.8834,3.8835,3.8805,3.8803,3.8801,3.8776,0,0,3.8796,3.8795,0,0,0,0,0,0,0,0,3.8889,3.8885,3.8856,3.8856,3.8855,3.8836,3.8838,3.8812,3.8833,3.8841,3.8834,3.8835,3.8814,3.8811,3.8805,3.8775,3.8774,3.8796,3.8794,3.8794,3.8793,0,0,0,0,0,0,0,3.8891,3.8887,3.8847,3.8856,3.8855,3.8856,3.8853,3.8833,3.8824,3.884,3.8841,3.8837,3.8814,3.8806,3.8804,3.8773,3.8796,3.8794,3.8793,3.8792,3.8724,3.8723,0,0,0,0,0,0,3.8893,3.8888,3.8848,3.8846,3.8874,3.8854,3.8851,3.8841,3.8824,3.8822,3.8837,3.8838,3.8809,3.8806,3.8803,3.8774,3.8794,3.8792,3.8791,3.8725,3.8724,3.8723,0,0,0,0,0,0,3.8894,3.8889,3.8849,3.8867,3.8862,3.8853,3.8842,3.884,3.8833,3.8822,3.882,3.8831,3.881,3.8806,3.8784,3.8773,3.8791,3.8789,3.8726,3.8725,3.8724,3.8715,0,0,0,0,0,0,3.8896,3.889,3.888,3.8867,3.8861,3.883,3.8841,3.8839,3.883,3.8831,3.8816,3.8814,3.881,3.8786,3.8782,3.8771,3.8788,3.8727,3.8725,3.8724,3.8716,3.8714,3.8712,0,0,0,0,0,3.8898,3.8878,3.888,3.8875,3.8849,3.8829,3.8826,3.8822,3.8829,3.882,3.8813,3.8814,3.8775,3.8784,3.8779,3.8767,3.8727,3.8726,3.8724,3.8717,3.8715,3.8712,0,0,0,0,0,0,3.8889,3.8876,3.8878,3.8853,3.8843,3.883,3.8818,3.8819,3.8805,3.8807,3.8802,3.8799,3.8777,3.877,3.878,3.8743,3.8752,3.8749,3.8749,3.8746,3.8744,3.8746,3.8786,0,0,0,0,0,3.8885,3.887,3.886,3.8839,3.8834,3.8827,3.8818,3.8816,3.8805,3.88,3.8791,3.878,3.8765,3.8755,3.874,3.8716,3.8713,3.8705,3.8703,3.8701,3.8699,3.8687,3.8684,3.8718,3.8718,3.8718,0,0,3.8874,3.8866,3.8857,3.8837,3.8829,3.8814,3.8823,3.8806,3.8796,3.8797,3.8777,3.877,3.8757,3.8734,3.8723,3.8727,3.8689,3.8699,3.8698,3.8697,3.8685,3.8682,3.8679,3.8717,3.8717,3.8717,0,0,3.8849,3.8841,3.8823,3.8815,3.8803,3.8799,3.8795,3.8782,3.8779,3.8758,3.876,3.8747,3.8721,3.8712,3.8704,3.8678,3.8679,3.8673,3.8661,3.865,3.8647,3.8645,3.8636,3.8633,3.8671,3.8671,3.8671,0,3.8838,3.8816,3.8814,3.8798,3.879,3.8793,3.8776,3.8767,3.8751,3.8745,3.875,3.8719,3.871,3.8686,3.868,3.8673,3.8669,3.8675,3.8648,3.8645,3.8643,3.8635,3.8632,3.867,3.867,3.867,3.867,0,3.8804,3.8789,3.8777,3.8762,3.8752,3.8736,3.8731,3.8722,3.8722,3.8717,3.8697,3.8687,3.8671,3.8666,3.8664,3.8642,3.8645,3.8649,3.8657,3.8639,3.8632,3.8629,3.8669,3.867,3.867,3.867,0,0,3.8771,3.8757,3.8752,3.8747,3.8734,3.8723,3.8707,3.8693,3.8685,3.8674,3.8661,3.864,3.8645,3.8636,3.8634,3.8624,3.8605,3.8629,3.8629,3.8626,3.8581,3.8578,3.8575,3.8606,3.8606,3.8605,3.8582,0,3.8745,3.8717,3.8716,3.8691,3.8678,3.8681,3.8668,3.8659,3.8655,3.8643,3.8638,3.8624,3.863,3.8625,3.8615,3.8609,3.8596,3.8611,3.8594,3.8594,3.8598,3.8571,3.8567,3.8546,3.8579,3.8579,3.8578,0,3.871,3.87,3.8674,3.8666,3.866,3.8648,3.8636,3.8624,3.8615,3.8613,3.8604,3.8604,3.8589,3.8598,3.8577,3.8587,3.8581,3.8577,3.8576,3.8574,3.8585,3.8569,3.8539,3.8537,3.8574,3.8574,3.8574,0,3.869,3.8669,3.8652,3.8646,3.8636,3.8627,3.8622,3.8614,3.8606,3.8595,3.859,3.8578,3.8571,3.8561,3.8559,3.8566,3.8538,3.8547,3.8536,3.8536,3.853,3.853,3.8499,3.8525,3.8525,3.8525,3.8525,0,3.8661,3.8645,3.8643,3.8632,3.8615,3.8614,3.8597,3.8593,3.8585,3.8574,3.8575,3.8565,3.8561,3.855,3.8548,3.8532,3.8528,3.8526,3.8526,3.8526,3.8527,3.8522,3.8523,3.8524,3.8524,3.8524,3.8525,0,3.8635,3.8633,3.8614,3.8606,3.8604,3.8592,3.8585,3.8575,3.8572,3.8558,3.8554,3.8549,3.8536,3.8533,3.8517,3.8515,3.8496,3.8497,3.85,3.85,3.849,3.8491,3.8455,3.845,3.8478,3.8478,3.8478,0,3.8617,3.8605,3.8597,3.859,3.8585,3.8574,3.8567,3.8565,3.8558,3.8547,3.8539,3.8526,3.8516,3.8496,3.8491,3.8479,3.848,3.8468,3.8478,3.8479,3.8481,3.8482,3.8481,3.8466,3.8466,3.8466,3.8465,0,3.8586,3.8586,3.8575,3.8565,3.8557,3.8549,3.8541,3.8535,3.8533,3.8524,3.8512,3.8504,3.8489,3.8477,3.8466,3.8461,3.8463,3.8463,3.846,3.846,3.8462,3.8462,3.8495,3.8463,3.8463,3.8464,3.8464,3.8464,3.8563,3.8554,3.8547,3.8536,3.8531,3.8524,3.8515,3.8511,3.8501,3.849,3.849,3.8476,3.8469,3.8454,3.8449,3.8438,3.8442,3.8437,3.8436,3.8435,3.8435,3.8464,3.8436,3.8436,3.8436,3.8436,3.8436,0,3.8533,3.8529,3.8519,3.8509,3.8501,3.8505,3.8497,3.849,3.8478,3.8471,3.8462,3.8449,3.8438,3.8433,3.8422,3.8415,3.8416,3.8412,3.8413,3.8412,3.8432,3.8436,3.8412,3.8412,3.8412,3.8412,3.8412,3.8412,3.8516,3.8501,3.85,3.8483,3.8479,3.8467,3.8462,3.8456,3.8451,3.8436,3.8428,3.8425,3.8419,3.8408,3.8398,3.8397,3.8393,3.839,3.8389,3.8408,3.841,3.8412,3.8416,3.8389,3.8389,3.837,3.837,3.837]}]]